This is the latest recevied weather packets stored in our database for station/object KI8L. If no packets are shown the sender has not sent any weather packets the latest 10 day(s).
| Time | Temp. | Humidity | Pressure | Rain* | Wind** | Luminosity | Snow |
|---|---|---|---|---|---|---|---|
| 1777862117 | 10° C | 72% | 1015 hPa | 0 mm | - | 0 W/m² | - |
| 1777861813 | 10° C | 72% | 1015.3 hPa | 0 mm | - | 0 W/m² | - |
| 1777861508 | 10° C | 71% | 1015.1 hPa | 0 mm | - | 0 W/m² | - |
| 1777861205 | 10° C | 71% | 1015.2 hPa | 0 mm | - | 0 W/m² | - |
| 1777860903 | 10° C | 73% | 1015.2 hPa | 0 mm | - | 0 W/m² | - |
| 1777860600 | 10° C | 71% | 1015.2 hPa | 0 mm | - | 0 W/m² | - |
| 1777860296 | 10° C | 70% | 1015.3 hPa | 0 mm | - | 0 W/m² | - |
| 1777859993 | 10° C | 69% | 1015.3 hPa | 0 mm | - | 0 W/m² | - |
| 1777859689 | 10.56° C | 69% | 1015.3 hPa | 0 mm | - | 0 W/m² | - |
| 1777859385 | 10.56° C | 70% | 1015.3 hPa | 0 mm | - | 0 W/m² | - |
| 1777859081 | 10.56° C | 67% | 1015.2 hPa | 0 mm | - | 0 W/m² | - |
| 1777858778 | 10.56° C | 68% | 1015.4 hPa | 0 mm | - | 0 W/m² | - |
| 1777858477 | 10.56° C | 66% | 1015.4 hPa | 0 mm | - | 0 W/m² | - |
| 1777858173 | 10.56° C | 67% | 1015.6 hPa | 0 mm | - | 0 W/m² | - |
| 1777857871 | 10.56° C | 65% | 1015.6 hPa | 0 mm | - | 0 W/m² | - |
| 1777857568 | 10.56° C | 66% | 1015.5 hPa | 0 mm | - | 0 W/m² | - |
| 1777857265 | 10.56° C | 66% | 1015.3 hPa | 0 mm | - | 0 W/m² | - |
| 1777856960 | 10.56° C | 66% | 1015.4 hPa | 0 mm | - | 0 W/m² | - |
| 1777856657 | 10.56° C | 66% | 1015.5 hPa | 0 mm | - | 0 W/m² | - |
| 1777856353 | 11.11° C | 65% | 1015.3 hPa | 0 mm | - | 0 W/m² | - |
| 1777856050 | 11.11° C | 64% | 1015.4 hPa | 0 mm | - | 0 W/m² | - |
| 1777855748 | 11.67° C | 64% | 1015.2 hPa | 0 mm | - | 0 W/m² | - |
| 1777855445 | 11.67° C | 61% | 1015.3 hPa | 0 mm | - | 0 W/m² | - |
| 1777855141 | 12.22° C | 58% | 1015 hPa | 0 mm | - | 0 W/m² | - |
| 1777854838 | 11.67° C | 52% | 1015 hPa | 0 mm | - | 1 W/m² | - |
* Rain latest hour (hover to see other rain measurements)
** Current wind speed in m/s (hover to see current wind gust speed)